Flag for Peru Weather past 2 weeks in Trujillo, La Libertad, Peru

Now
70 °F

Overcast.


Feels Like: 70 °F
Forecast: N/A
Wind: 10 mph from Southeast

Location: Trujillo Airport

Current Time: Jul 2, 2015 at 5:08:08 PM

Latest Report: Jul 2, 2015 at 4:00 PM


Visibility: 5 mi

Pressure: 29.77 "Hg

Humidity: 83%

Dew point: 64 °F

Location of TrujilloLocation

Historic Weather in Trujillo — Graph

°F

Trujillo temperature yesterday

Maximum temperature yesterday: 73 °F (at 1:00 PM)
Minimum temperature yesterday: 61 °F (at 5:00 AM)
Average temperature yesterday: 67 °F

Past Weeks' High & Low Weather Summary

 TemperatureHumidityPressure
High75 °F (Jun 18, 2:00 PM)100% (Jun 29, 5:00 PM)29.95 "Hg (Jun 29, 5:00 PM)
Low61 °F (Jul 1, 5:00 AM)65% (Jun 22, 12:00 PM)29.77 "Hg (Jun 17, 4:00 PM)
Average70 °F82%29.86 "Hg
* Reported Jun 17 3:00 PM — Jul 2 3:00 PM, Trujillo, Weather by CustomWeather, © 2015

Note: Actual official high and low records may vary slightly from our data, if they occured in-between our weather recording intervals... More about our weather records

Advertising

Trujillo weather history for previous 24 hours

 ConditionsComfort  
Time TempWeatherWind HumidityBarometerVisibility
3:00 PM
Thu, Jul 2
72 °FPartly sunny.9 mph78%29.77 "Hg5 mi
2:00 PM72 °FOvercast.7 mph78%29.80 "Hg5 mi
1:00 PM70 °FOvercast.10 mph83%29.83 "Hg5 mi
12:00 PM70 °FOvercast.9 mph83%29.86 "Hg5 mi
11:00 AM68 °FOvercast.8 mph88%29.86 "Hg5 mi
10:00 AM68 °FOvercast.8 mph88%29.86 "Hg5 mi
9:00 AM68 °FOvercast.7 mph83%29.86 "Hg5 mi
8:00 AM66 °FOvercast.7 mph88%29.86 "Hg4 mi
7:00 AM66 °FFog.6 mph88%29.83 "Hg2 mi
6:00 AM66 °FFog.7 mph88%29.83 "Hg3 mi
5:00 AM66 °FFog.5 mph88%29.80 "Hg3 mi
4:00 AM66 °FFog.6 mph88%29.80 "Hg3 mi
3:00 AM68 °FFog.6 mph83%29.80 "Hg3 mi
2:00 AM68 °FFog.6 mph83%29.83 "Hg3 mi
1:00 AM68 °FOvercast.9 mph83%29.83 "Hg4 mi
12:00 AM68 °FOvercast.8 mph83%29.86 "Hg5 mi
11:00 PM
Wed, Jul 1
68 °FOvercast.9 mph88%29.86 "Hg4 mi
10:00 PM68 °FMostly cloudy.10 mph88%29.86 "Hg4 mi
9:00 PM68 °FMostly cloudy.10 mph88%29.86 "Hg4 mi
8:00 PM68 °FMostly cloudy.7 mph88%29.86 "Hg5 mi
7:00 PM68 °FPassing clouds.9 mph88%29.83 "Hg4 mi
6:00 PM70 °FScattered clouds.8 mph83%29.80 "Hg6 mi
5:00 PM70 °FClear.9 mph83%29.77 "Hg6 mi
Weather by CustomWeather, © 2015

See weather overviewHow to use our weather pages